* Astronomy

Members Login
Post Info TOPIC: Asteroid 2010 BK118


L

Posts: 131433
Date:
Asteroid 2010 BK118
Permalink  
 


Orbital elements:
2010 BK118
Epoch 2010 July 23.0 TT = JDT 2455400.5 MPC
M 359.87361 (2000.0) P Q
n 0.00019576 Peri. 178.65932 +0.99854274 -0.03408703
a 293.7590326 Node 175.92497 -0.05335268 -0.50692942
e 0.9791498 Incl. 143.93124 -0.00811704 -0.86131332
P 5030 H 10.3 G 0.15

MPEC 2010 - S36


__________________
Page 1 of 1  sorted by
Quick Reply

Please log in to post quick replies.



Create your own FREE Forum
Report Abuse
Powered by ActiveBoard